Regional Weather Roundup
Issued by NWS

Home | Current Version | Previous Version | Text Only | Print | Product List | Glossary Off
Versions: 1 2 3 4 5 6 7 8 9 10 11 12 13 14 15 16 17 18 19 20 21 22 23 24 25 26 27 28 29 30 31 32 33 34 35 36 37 38 39 40 41 42 43 44 45 46 47 48 49 50

000
ASUS43 KLSX 211507
RWRMO

WEATHER SUMMARY FOR MISSOURI
NATIONAL WEATHER SERVICE SPRINGFIELD MO
1000 AM CDT SAT OCT 21 2017

NOTE: "FAIR" INDICATES FEW OR NO CLOUDS BELOW 12,000 FEET WITH NO
       SIGNIFICANT WEATHER AND/OR OBSTRUCTIONS TO VISIBILITY.
       CURRENT SKY AND/OR WEATHER CONDITIONS ARE NOT AVAILABLE FOR
       CHILLICOTHE AND FARMINGTON.

MOZ001>031-035>038-043-044-053-054-211600-
...NORTHERN AND WESTERN MISSOURI...

CITY           SKY/WX    TMP DP  RH WIND       PRES   REMARKS
KANSAS CTY INT CLOUDY    67  60  78 S25G33    29.82S
KANSAS C DTWN  CLOUDY    68  60  75 S17G23    29.85S
LEE`S SUMMIT   CLOUDY    67  60  78 S24G33    29.87S
ST JOSEPH      LGT RAIN  68  62  81 S17G31    29.79R
CHILLICOTHE      N/A     67  59  75 S14G22    29.88S
KIRKSVILLE     PTSUNNY   69  60  73 S18G36    29.93S

$$
MOZ066>068-077>081-088>096-101>105-211600-
...SOUTHWEST MISSOURI...

CITY           SKY/WX    TMP DP  RH WIND       PRES   REMARKS
SPRINGFIELD    PTSUNNY   68  60  75 SE16      29.99R
JOPLIN         MOSUNNY   69  63  81 S16G29    29.92F
BRANSON        PTSUNNY   72  61  68 SE6       30.04R

$$
MOZ032>034-039>042-045>050-055>058-069>072-211600-
...CENTRAL MISSOURI...

CITY           SKY/WX    TMP DP  RH WIND       PRES   REMARKS
COLUMBIA       SUNNY     68  59  73 S18G25    29.98S
JEFFERSON CITY CLOUDY    71  58  63 S14       29.98S
ROLLA          CLOUDY    68  61  78 S17G24    30.03S
SEDALIA        SUNNY     72  62  71 S23G32    29.94S
WHITEMAN AFB   MOSUNNY   69  61  74 S20G33    29.87S
WARRENSBURG    MOSUNNY   70  59  68 S21G30    29.89F
OSAGE BEACH    CLOUDY    69  60  73 S10       30.00S

$$
MOZ051-052-059>065-211600-
...EAST CENTRAL MISSOURI...

CITY           SKY/WX    TMP DP  RH WIND       PRES   REMARKS
ST LOUIS INTL  CLOUDY    66  57  72 S14G20    30.06R
SPIRIT OF STL  CLOUDY    67  59  75 S5        30.04R
ST CHARLES     CLOUDY    67  57  70 S8        30.05R

$$
MOZ072>076-082>087-097>100-106>115-211600-
...SOUTH CENTRAL AND SOUTHEAST MISSOURI...

CITY           SKY/WX    TMP DP  RH WIND       PRES   REMARKS
CAPE GIRARDEAU PTSUNNY   69  51  52 S15       30.13S
FARMINGTON     MOSUNNY   65  57  75 S13       30.09S
POPLAR BLUFF   MOSUNNY   69  55  60 S7        30.11F
WEST PLAINS    CLOUDY    65  61  87 S12G18    30.09R

$$



USA.gov is the U.S. government's official web portal to all federal, state and local government web resources and services.